This is the latest recevied weather packets stored in our database for station/object KK7ISX. If no packets are shown the sender has not sent any weather packets the latest 10 day(s).
| Time | Temp. | Humidity | Pressure | Rain* | Wind** | Luminosity | Snow |
|---|---|---|---|---|---|---|---|
| 1777247161 | 13.89° C | 36% | 1006.6 hPa | 0 mm | - | 308 W/m² | - |
| 1777246858 | 13.89° C | 37% | 1006.7 hPa | 0 mm | - | 319 W/m² | - |
| 1777246554 | 13.89° C | 35% | 1006.6 hPa | 0 mm | - | 328 W/m² | - |
| 1777246251 | 13.89° C | 35% | 1006.7 hPa | 0 mm | - | 345 W/m² | - |
| 1777245949 | 13.89° C | 35% | 1006.6 hPa | 0 mm | - | 359 W/m² | - |
| 1777245647 | 14.44° C | 35% | 1006.8 hPa | 0 mm | - | 381 W/m² | - |
| 1777245344 | 13.89° C | 35% | 1006.7 hPa | 0 mm | - | 422 W/m² | - |
| 1777245044 | 13.89° C | 34% | 1006.8 hPa | 0 mm | - | 465 W/m² | - |
| 1777244740 | 15° C | 32% | 1006.6 hPa | 0 mm | - | 453 W/m² | - |
| 1777244437 | 13.89° C | 33% | 1006.5 hPa | 0 mm | - | 445 W/m² | - |
| 1777244133 | 13.33° C | 33% | 1006.6 hPa | 0 mm | - | 449 W/m² | - |
| 1777243832 | 13.89° C | 32% | 1006.7 hPa | 0 mm | - | 458 W/m² | - |
| 1777243528 | 13.89° C | 33% | 1006.5 hPa | 0 mm | - | 468 W/m² | - |
| 1777243223 | 13.33° C | 34% | 1006.6 hPa | 0 mm | - | 480 W/m² | - |
| 1777242919 | 13.89° C | 34% | 1006.5 hPa | 0 mm | - | 131 W/m² | - |
| 1777242617 | 13.33° C | 33% | 1006.6 hPa | 0 mm | - | 541 W/m² | - |
| 1777242318 | 13.89° C | 34% | 1006.6 hPa | 0 mm | - | 531 W/m² | - |
| 1777242015 | 13.89° C | 31% | 1006.6 hPa | 0 mm | - | 533 W/m² | - |
| 1777241713 | 13.33° C | 32% | 1006.6 hPa | 0 mm | - | 98 W/m² | - |
| 1777241409 | 13.89° C | 33% | 1006.8 hPa | 0 mm | - | 584 W/m² | - |
| 1777241107 | 13.89° C | 32% | 1006.6 hPa | 0 mm | - | 576 W/m² | - |
| 1777240805 | 13.89° C | 32% | 1006.6 hPa | 0 mm | - | 145 W/m² | - |
| 1777240503 | 13.89° C | 33% | 1006.7 hPa | 0 mm | - | 589 W/m² | - |
| 1777240199 | 13.89° C | 32% | 1006.9 hPa | 0 mm | - | 596 W/m² | - |
| 1777239897 | 13.33° C | 33% | 1006.8 hPa | 0 mm | - | 604 W/m² | - |
* Rain latest hour (hover to see other rain measurements)
** Current wind speed in m/s (hover to see current wind gust speed)